Regional Weather Roundup
Issued by NWS Albany, NY

Home | Current Version | Previous Version | Graphics & Text | Print | Product List | Glossary On
Versions: 1 2 3 4 5 6 7 8 9 10 11 12 13 14 15 16 17 18 19 20 21 22 23 24 25 26 27 28 29 30 31 32 33 34 35 36 37 38 39 40 41 42 43 44 45 46 47 48 49 50
000
ASUS41 KALY 051210
RWRALY

NEW YORK STATE HOURLY WEATHER ROUNDUP
NATIONAL WEATHER SERVICE ALBANY NY
700 AM EST THU MAR 05 2015

NOTE: "FAIR" INDICATES FEW OR NO CLOUDS BELOW 12,000 FEET WITH NO
SIGNIFICANT WEATHER AND/OR NO OBSTRUCTIONS TO VISIBILITY.

NYZ032-033-038>043-046>054-057>066-NYZ062>081-051300-
EAST


CITY           SKY/WX    TMP DP  RH WIND       PRES   REMARKS
ALBANY         CLOUDY    24   6  46 NW15G23   30.09R WCI  11
GLENS FALLS    CLOUDY    24   4  42 NW5       30.06S WCI  18
POUGHKEEPSIE   CLOUDY    29  15  56 N14G24    30.05R WCI  18
NEWBURGH       CLOUDY    30  23  74 NE16      30.02R WCI  19
MONTGOMERY     CLOUDY    31  18  58 NW12      30.03R WCI  22
WHITE PLAINS   SNOW      30  28  92 N16       30.00R VSB 1/2 WCI  19
ISLIP          LGT SNOW  32  30  92 N10       29.99R VSB 1   WCI  24
NEW YORK CITY  SNOW      34  28  80 NW8       30.03R VSB 1/2 WCI  27
CENTRAL PARK   LGT SNOW  31  29  92 NW6       30.06R VSB 3/4 WCI  25
$$

NYZ005>009-017-018-044>046-055-056-051300-
CENTRAL


CITY           SKY/WX    TMP DP  RH WIND       PRES   REMARKS
FULTON         CLOUDY    14   2  58 NW14      30.20R WCI  -1
SYRACUSE       CLOUDY    12   4  70 W14       30.19R WCI  -3
ROME           CLOUDY    15   2  56 NW15      30.17R WCI   0
ELMIRA         CLOUDY    15   5  64 N9        30.18R WCI   3
BINGHAMTON     CLOUDY    12   1  61 N16       30.06S WCI  -5
MONTICELLO     CLOUDY    21  10  63 NW16G25   30.01R WCI   7
$$

NYZ026>034-041>043-051300-
NORTH


CITY           SKY/WX    TMP DP  RH WIND       PRES   REMARKS
WATERTOWN      MOCLDY    13   1  59 NW9       30.21R WCI   1
FORT DRUM      NOT AVBL
MASSENA        PTCLDY     9  -5  53 NW8       30.20R WCI  -3
SARANAC LAKE   LGT SNOW   8   3  80 VRB5      29.98R WCI   0
PLATTSBURGH    CLOUDY    15   5  64 NW15G25   30.13R WCI   0
$$

NYZ001>004-010>016-019>021-051300-
WEST


CITY           SKY/WX    TMP DP  RH WIND       PRES   REMARKS
NIAGARA FALLS  CLOUDY     9  -1  64 NW10      30.26R WCI  -5
BUFFALO        CLOUDY    10  -1  61 NW9       30.25R WCI  -3
DUNKIRK        CLOUDY     9  -1  64 NW8       30.28S WCI  -3
JAMESTOWN      CLOUDY     7   0  72 N13       30.15S WCI  -9
WELLSVILLE     MIX PCPN   9   2  73 NW12      30.07S WCI  -6
ROCHESTER      CLOUDY    14   1  56 NW14      30.25R WCI  -1
PENN YAN       CLOUDY    13   1  59 NW8       30.19R WCI   2
$$

             KEY
       WCI = WIND CHILL INDEX
       VSB = VISIBILITY
       HX  = HEAT INDEX
$$



USA.gov is the U.S. government's official web portal to all federal, state and local government web resources and services.